Regional Weather Roundup
Issued by NWS San Diego, CA

Home | Current Version | Previous Version | Text Only | Print | Product List | Glossary On
Versions: 1 2 3 4 5 6 7 8 9 10 11 12 13 14 15 16 17 18 19 20 21 22 23 24 25 26 27 28 29 30 31 32 33 34 35 36 37 38 39 40 41 42 43 44 45 46 47 48 49 50
000
ASUS46 KSGX 171811
RWRSGX

SAN DIEGO HOURLY WEATHER ROUNDUP
NATIONAL WEATHER SERVICE SAN DIEGO CA
1000 AM PST TUE JAN 17 2017

NOTE: "FAIR" INDICATES FEW OR NO CLOUDS BELOW 12,000 FEET WITH NO
SIGNIFICANT WEATHER AND/OR OBSTRUCTIONS TO VISIBILITY.

CAZ042-043-060-061-PZZ750-775-171900-

GREATER SAN DIEGO AREA

CITY           SKY/WX    TMP DP  RH WIND       PRES   REMARKS
SAN DIEGO AP   SUNNY     59  43  55 S3        30.15S
NATIONAL CITY    N/A     58  47  66 CALM      30.15R
CHULA VISTA      N/A     60  51  70 E1        30.07R
IMPERIAL BEACH SUNNY     63  43  48 CALM      30.14S
BROWN FIELD    SUNNY     59  41  51 CALM      30.13S
MIRAMAR MCAS   SUNNY     63  44  50 CALM      30.13S
MONTGOMERY FLD SUNNY     57  39  51 SE3       30.14R

$$

NORTH SAN DIEGO COUNTY

CITY           SKY/WX    TMP DP  RH WIND       PRES   REMARKS
CAMP PENDLETON SUNNY     54  43  66 CALM      30.14R
OCEANSIDE AP   SUNNY     57  41  55 E5        30.14R
VISTA            N/A     51  47  84 CALM      30.13R
CARLSBAD       SUNNY     58  40  51 CALM      30.13R
DEL MAR          N/A     56  53  89 CALM      30.16R
LA JOLLA SCRIP   N/A     56  52  85 NW1       30.14R
FALLBROOK        N/A     59  46  62 CALM      30.12S
ESCONDIDO        N/A     58  39  48 CALM      30.16R
SAN MARCOS       N/A     60  42  51 CALM      30.16R

$$

EAST SAN DIEGO COUNTY

CITY           SKY/WX    TMP DP  RH WIND       PRES   REMARKS
RAMONA         SUNNY     57  34  41 CALM      30.13R
SANTEE LAKES     N/A     55  45  70 CALM      30.15R
LA MESA          N/A     56  45  65 CALM      30.08R
JAMUL            N/A     57  36  45 CALM      30.16R
DESCANSO N       N/A     51  27  39 W6        30.10R
CAMPO            N/A     55  25  31 E14       30.08R

$$

ORANGE COUNTY AND THE LOS ANGELES BASIN

CITY           SKY/WX    TMP DP  RH WIND       PRES   REMARKS
JOHN WAYNE AP  MOSUNNY   58  46  64 VRB3      30.13S
LAGUNA BEACH     N/A     55  55 100 S5        30.09S
HUNTINGTON BCH   N/A     59  56  88 SE2       30.15R
LOS ALAMITOS   SUNNY     57  51  79 E5        30.13R
FULLERTON      SUNNY     59  44  57 E3        30.12S
LONG BEACH     SUNNY     56  47  71 E3        30.13S
L.A. AP        MOSUNNY   58  42  55 E8        30.12S
L.A. DOWNTOWN  SUNNY     60  37  42 VRB3      30.12S

$$

THE INLAND EMPIRE

CITY           SKY/WX    TMP DP  RH WIND       PRES   REMARKS
CORONA         SUNNY     57  37  47 CALM      30.15
CHINO          SUNNY     57  33  40 CALM      30.15R
ONTARIO        SUNNY     56  28  34 SE3       30.14R
SAN BERNARDINO SUNNY     59  25  27 CALM      30.14S
RIVERSIDE AP   SUNNY     50  33  52 CALM      30.14S
MORENO VALLEY    N/A     59  31  35 CALM      28.23S
MARCH ARB      SUNNY     52  34  49 CALM      30.14R
HORSETHIEF CYN   N/A     56  29  36 CALM      30.17R
PERRIS           N/A     49  40  72 CALM      30.20S
HEMET EAST       N/A     55  29  37 CALM      30.21R
FRENCH VALLEY  NOT AVBL
TEMECULA         N/A     49  42  77 CALM      30.20S

$$

SAN BERNARDINO AND RIVERSIDE COUNTY MOUNTAINS

CITY           SKY/WX    TMP DP  RH WIND       PRES   REMARKS
BIG BEAR AP    SUNNY     30  14  51 E3        30.16S
ANGELUS OAKS     N/A     34  24  66 CALM      30.18R
PINE COVE        N/A     39  19  44 CALM      30.19R

$$

SOUTHERN DESERT INCLUDING THE COACHELLA VALLEY

CITY           SKY/WX    TMP DP  RH WIND       PRES   REMARKS
PALM SPRINGS   SUNNY     62  30  29 CALM      30.15R
PALM DESERT      N/A     59  35  40 CALM      30.12S
THERMAL        SUNNY     59  33  37 CALM      30.13R
BLYTHE         SUNNY     53  30  41 SE3       30.15R
IMPERIAL AP    SUNNY     57  44  62 CALM      30.13R
EL CENTRO NAS  MOSUNNY   57  44  62 CALM      30.15R
YUMA AZ        MOSUNNY   59  30  33 NE5       30.12
MEXICALI       SUNNY     57  39  51 NW3       30.14

$$

UPPER DESERT

CITY           SKY/WX    TMP DP  RH WIND       PRES   REMARKS
VICTORVILLE AP SUNNY     45  19  36 CALM      30.19R
HESPERIA         N/A     48  23  37 SW2       30.39S
PALMDALE       SUNNY     45  29  53 NE5       30.18S
LANCASTER      SUNNY     42  31  64 N3        30.19S
EDWARDS AFB    SUNNY     40  30  66 CALM      30.18S
DAGGETT        SUNNY     46  29  51 NW5       30.21R
29 PALMS N     SUNNY     50  23  34 NW6       30.25R
NEEDLES        SUNNY     57  21  24 N16       30.17R

$$

REGIONAL REPORTS

CITY           SKY/WX    TMP DP  RH WIND       PRES   REMARKS
SANTA BARBARA  SUNNY     57  54  89 S3        30.11R
SANDBERG       SUNNY     49  19  30 NE10      30.16R
LAS VEGAS NV   SUNNY     48  18  30 CALM      30.21R
PHOENIX AZ     PTSUNNY   55  43  63 CALM      30.08S
TIJUANA        SUNNY     57  36  44 CALM      30.16R
ENSENADA NW      N/A     59  32  35 W1        30.10R

$$

OFFSHORE ISLANDS

CITY           SKY/WX    TMP DP  RH WIND       PRES   REMARKS
CATALINA ARPT  SUNNY     56  47  71 SE10      30.12S
SAN CLEMENTE I MOSUNNY   58  54  86 CALM      30.14S
SAN NICOLAS IS MOSUNNY   59  50  72 SW7       30.11R

$$

MARINE AND OFFSHORE BUOY REPORTS

STATION/POSITION SKY/WX   TEMP    WIND        PRES    VSBY  SWELL
                          AIR SEA DIR/SP/G                  HT/PER/DIR
                          (F)     (DEG/KT/KT) (MB)    (MI)  (FT/S/D)
TANNER BANKS               57 59  280/  6/  8 1020.2R         7/300/15
S CLEMENTE BASIN           58 61  310/  8/ 10 1020.2          5/280/15
SAN NICOLAS IS.               58                N/A           5/290/13
SO. S. ROSA ISLA           56 57  270/  4/  6 1019.7R         7/280/14
W. S. BARBARA CH           58 58   CALM  /  2 1019.8R         5/280/13
M. S. BARBARA CH                   CALM  /  2 1020.0R
S. MONICA BASIN            59 59  120/  4/  6 1019.6R         5/250/15
S PEDRO CHANNEL               59                N/A           3/270/15
CMP PENDLETON NS              59                N/A           2/240/15
OCEANSIDE OFFSHR              60                N/A           2/240/15
TORREY PINES OTR              60                N/A           3/260/14
POINT LOMA SOUTH              60                N/A           3/280/14

$$




USA.gov is the U.S. government's official web portal to all federal, state and local government web resources and services.